SOYUZ-MS 25

Last updated on Fri Sep 13 2024 00:02:08 GMT+0000 (Coordinated Universal Time)

1 59294U 24055A 24256.44549454 .00049954 00000+0 90878-3 0 9998 2 59294 51.6363 243.1340 0007605 343.1115 16.9619 15.48984641471934
UTC large
Height (km)
Speed (km/s)
/
Latitude / Longitude
Inclination (degrees)
Orbital Period (minutes)
Azimuth
Elevation
Range (km)
Doppler Factor

Next 0 passes for location: London (51.5072 / 0.1276)

Sorry there are no passes over London.